Regional Weather Roundup
Issued by NWS Grand Forks, ND

Home | Current Version | Previous Version | Text Only | Print | Product List | Glossary Off
Versions: 1 2 3 4 5 6 7 8 9 10 11 12 13 14 15 16 17 18 19 20 21 22 23 24 25 26 27 28 29 30 31 32 33 34 35 36 37 38 39 40 41 42 43 44 45 46 47 48 49 50

741
ASUS43 KFGF 250531
RWRFGF
PRAIRIE TO PINES  WEATHER ROUNDUP
NATIONAL WEATHER SERVICE EASTERN NORTH DAKOTA/GRAND FORKS ND
1200 AM CDT TUE JUL 25 2017

 **SATELLITE DATA USED TO AUGMENT SKY COVER AT AUTOMATED STATIONS**
 *****  WEATHER ACROSS EASTERN NORTH DAKOTA  *****

CITY           SKY/WX    TMP DP  RH WIND       PRES   REMARKS
GRAND FORKS    FAIR      69  65  86 S10       29.86R
GRAND FRKS AFB FAIR      69  64  83 S14       29.86R
DEVILS LAKE    FAIR      71  65  81 S15       29.84R
FARGO          FAIR      71  63  75 SE20G25   29.87F
WAHPETON ARPT  FAIR      64  61  88 SE9       29.91F
$$

 ***** WEATHER ACROSS CENTRAL AND WESTERN NORTH DAKOTA  *****

CITY           SKY/WX    TMP DP  RH WIND       PRES   REMARKS
BISMARCK       FAIR      73  67  81 S10       29.83R
MINOT          FAIR      72  58  61 W6        29.82S
JAMESTOWN      FAIR      68  64  87 SE10      29.85R
MINOT AFB      MOCLDY    73  55  51 NW10      29.81R
GARRISON         N/A     77  67  71 S9        29.82S
WILLISTON      FAIR      72  48  42 N5        29.85S
DICKINSON      FAIR      74  57  55 N9        29.86R
HETTINGER      FAIR      74  65  73 E6        29.87R
$$

 *****  OTHER AIRPORT OBSERVATIONS IN OUR AREA  *****

CITY           SKY/WX    TMP DP  RH WIND       PRES   REMARKS
WALHALLA       NOT AVBL
GRAFTON AIRPOR FAIR      68  64  88 S13G20    29.86F
VALLEY CITY AR FAIR      68  68 100 S14G22    29.88R
CANDO          NOT AVBL
CAVALIER APRT  FAIR      70  64  83 S12G18    29.81F
GWINNER        CLEAR     68  66  94 SE8       29.88S
SHEYENNE NWR     N/A     65  65 100 SE7       29.95S
ROLLA            N/A     68  68 100 S10       29.82F
 ***** THE ABOVE OBSERVATIONS ARE NON NWS ARE NOT QUALITY
       CONTROLLED AND MAY MIS-REPORT RAIN FOR SNOW...
$$

  *****  WEATHER ACROSS NORTHERN MINNESOTA  *****

CITY           SKY/WX    TMP DP  RH WIND       PRES   REMARKS
FLAG ISLAND    FAIR      70  63  78 S13       29.90F
WARROAD        FAIR      64  61  88 S8        29.91F
ROSEAU         FAIR      66  61  82 S14       29.88F
HALLOCK        FAIR      66  64  94 S10       29.85R
THF RVR FALLS  FAIR      64  61  90 SE10      29.92S
BAUDETTE       FAIR      64  59  83 S9        29.95R
WASKISH        FAIR      64  61  88 S3        29.96S
CROOKSTON      FAIR      66  63  88 S9        29.90F
STEPHEN NDAWN    N/A     70  63  78 S10         N/A
GREENBUSH NDAW   N/A     66  61  82 S8          N/A
$$
  *****  WEATHER ACROSS CENTRAL AND WEST MINNESOTA  *****

CITY           SKY/WX    TMP DP  RH WIND       PRES   REMARKS
FOSSTON        FAIR      64  61  88 SE8       29.94S
BEMIDJI        FAIR      64  60  87 SE7       29.97F
PARK RAPIDS    FAIR      66  60  81 SE8       29.97F
ELBOW LAKE     FAIR      67  63  87 E9        29.96S
WADENA         FAIR      64  61  88 E6        29.98F
DETROIT LAKES  FAIR      68  63  83 S9G16     29.95S
MOORHEAD       FAIR      70  63  78 SE12G18   29.90R
FERGUS FALLS   FAIR      70  63  78 S16       29.93S
MORRIS MN      LGT RAIN  68  64  88 S18       29.94F
STAPLES        FAIR      64  59  82 CALM      30.00S
$$
  *****  WEATHER ELSEWHERE ACROSS MINNESOTA  *****

CITY           SKY/WX    TMP DP  RH WIND       PRES   REMARKS
DULUTH         FAIR      59  55  87 SE5       30.05R
INTRNTL FALLS  FAIR      61  56  83 SE6       29.97S
ELY            FAIR      59  52  77 SE5       30.05S
CLOQUET        FAIR      61  54  77 E3        30.04S
WHEATON        FAIR      68  63  83 SE10      29.95R
BRAINERD       FAIR      67  60  78 SW6       30.01R
HIBBING        FAIR      58  55  90 SE7       30.03R
ALEXANDRIA     FAIR      67  63  87 SE9       30.00R
SAINT CLOUD    FAIR      68  62  81 S12       29.99R
MINNEAPOLIS    MOCLDY    69  60  73 S7        30.06R
$$

  *****  WEATHER ACROSS SOUTH DAKOTA  *****

CITY           SKY/WX    TMP DP  RH WIND       PRES   REMARKS
SIOUX FALLS    CLOUDY    74  66  76 S15G26    29.92S
BROOKINGS      FAIR      71  64  78 SE15      29.93R
WATERTOWN      CLOUDY    72  65  78 E8        29.95R
HURON          FAIR      75  66  73 SE16G23   29.82F
SISSETON         N/A     70  67  90 S14       29.91R
ABERDEEN       FAIR      73  67  81 E15       29.87R
MITCHELL       FAIR      78  67  68 SE17G25   29.83F
PIERRE         FAIR      75  62  64 E5        29.80R
MOBRIDGE       FAIR      74  66  76 SE10      29.81R
RAPID CITY     FAIR      77  55  46 SE5       29.87R
$$

  *****  SOME WEATHER IN NEARBY STATES *****

CITY           SKY/WX    TMP DP  RH WIND       PRES   REMARKS
GLASGOW MT     FAIR      70  41  34 N14       29.89R
GREAT FALLS MT FAIR      71  38  29 NE22G32   29.96R
CHEYENNE WY    FAIR      67  44  43 SW7       30.12R
SCOTTSBLUFF NE FAIR      75  55  49 E6        29.95R
OMAHA NE       FAIR      77  65  66 SE10      29.99S
DES MOINES IA  FAIR      72  65  78 E13       30.04R
DAVENPORT IA   FAIR      63  60  90 E3        30.12R
CHICAGO IL     FAIR      67  59  75 NE6       30.12R
EAU CLAIRE WI  FAIR      60  57  89 SE3       30.08R
LA CROSSE WI   FAIR      65  61  87 E6        30.09R
$$

  *****  SOME NATIONAL WEATHER *****

CITY           SKY/WX    TMP DP  RH WIND       PRES   REMARKS
LA GUARDIA NY  CLOUDY    64  59  83 E9        29.96S
RALEIGH NC     MOCLDY    78  75  90 SW9       29.97R
ATLANTA GA     MOCLDY    74  71  91 CALM      30.05S
NEW ORLEANS LA MOCLDY    79  74  84 CALM      30.07S
OKLAHOMA CITY  FAIR      76  69  79 S7        30.01R
ALBUQUERQUE NM FAIR      79  56  45 W8        30.16R
SALT LAKE CITY LGT RAIN  78  62  57 E10       30.02R
LOS ANGELES CA FAIR      69  65  86 W9        29.91R
BOISE ID       FAIR      82  47  29 W8        29.86R
SEATTLE WA     FAIR      71  53  52 N7        29.97R
$$

*** WEATHER ACROSS MANITOBA...SASKATCHEWAN AND ONTARIO ***
                ***ONTARIO***

CITY           SKY/WX    TMP DP  RH WIND       PRES   REMARKS
GERALDTON      CLEAR     63  54  72 SW6       30.04F
THUNDER BAY    CLEAR     55  54  94 VRB2      30.05S
SIOUX LOOKOUT  PTCLDY    66  55  68 S7        29.96R
TORONTO        CLOUDY    63  55  77 N10       30.02R
BIG TROUT LK   CLOUDY    66  66 100 CALM      29.85R
PICKLE LAKE    NOT AVBL
DRYDEN         CLEAR     68  55  64 S10       29.95R
KENORA         PTCLDY    70  59  68 S12G18    29.93R
$$
                *** MANITOBA***

CITY           SKY/WX    TMP DP  RH WIND       PRES   REMARKS
BRANDON        MOCLDY    64  61  88 NW7       29.78R THUNDER
DAUPHIN        CLEAR     66  57  72 W10       29.75R
ISLAND LAKE    NOT AVBL
PILOT MOUND      N/A     68  64  88 S15G22      N/A
THE PAS        PTCLDY    63  50  63 S6        29.61F
THOMPSON       PTCLDY    64  63  94 E5        29.54F
WINNIPEG       LGT RAIN  70  63  78 S17G29    29.79R
LYNN LAKE      CLOUDY    63  63 100 E12G17    29.55F
CHURCHILL      MOCLDY    48  46  93 SE8       29.78F
GILLAM         TSTM      59  57  94 E8        29.66F
$$
                ***SASKATCHEWAN***

CITY           SKY/WX    TMP DP  RH WIND       PRES   REMARKS
ESTEVAN        PTCLDY    59  50  72 NW9       29.84S
KINDERSLEY     MOCLDY    55  48  76 W16G28    29.88R
LLOYDMINSTER   MOCLDY    55  54  94 NW18G33   29.80R
PRINCE ALBERT  LGT RAIN  54  52  94 W15G25    29.62R
REGINA         CLEAR     52  41  66 W9        29.84S
YORKTON        CLEAR     61  48  63 S12       29.76F
N. BATTLEFORD  CLOUDY    57  55  94 W21G31    29.72R
LA RONGE       MOCLDY    54  52  94 NW5       29.56S
SASKATOON      LGT RAIN  57  52  82 W24G35    29.72S
SWIFT CURRENT  CLEAR     55  43  62 NW14      29.93R
$$
NOTE: THESE ARE AUTOMATED STATIONS WITH LIMITED QUALITY CONTROL
      "FAIR" INDICATES FEW OR NO CLOUDS BELOW 12,000 FEET WITH NO
      SIGNIFICANT WEATHER AND/OR OBSTRUCTIONS TO VISIBILITY.
      SKY/WX - SKY CONDITION AND SIGNIFICANT WEATHER.
      TMP - AIR TEMPERATURE.    DP   - DEWPOINT TEMPERATURE.
      RH  - RELATIVE HUMIDITY.  PRES - PRESSURE.
      HX  - HEAT INDEX.         WCI  - WIND CHILL INDEX.
$




USA.gov is the U.S. government's official web portal to all federal, state and local government web resources and services.